FW4660 Weather Reports


Display with metric or nautical units.
time (UTC)temp
F
wind
direction
speed
MPH
gust
MPH
rain 1hr
in
rain 24hr
in
rain mn
in
humidity
%
barometer
mb
20210923014700 89 299 3.0 15.0 0.00 0.00 0.00 34 1014.9
20210923014058 90 293 4.0 15.0 0.00 0.00 0.00 33 1014.7
20210923013601 90 315 7.0 14.0 0.00 0.00 0.00 32 1014.7
20210923013118 91 292 7.0 17.0 0.00 0.00 0.00 32 1014.6
20210923012606 91 319 10.0 17.0 0.00 0.00 0.00 32 1014.6
20210923012056 91 290 7.0 14.0 0.00 0.00 0.00 32 1014.7
20210923011741 91 317 7.0 18.0 0.00 0.00 0.00 32 1014.6
20210923011104 91 284 11.0 22.0 0.00 0.00 0.00 31 1014.5
20210923010601 92 284 13.0 23.0 0.00 0.00 0.00 31 1014.5
20210923010138 92 286 11.0 23.0 0.00 0.00 0.00 30 1014.4
20210923005605 92 292 15.0 22.0 0.00 0.00 0.00 30 1014.6
20210923005101 93 310 12.0 22.0 0.00 0.00 0.00 29 1014.7
20210923004705 93 281 14.0 22.0 0.00 0.00 0.00 29 1014.6
20210923004136 93 331 14.0 20.0 0.00 0.00 0.00 29 1014.6
20210923003558 93 339 11.0 19.0 0.00 0.00 0.00 29 1014.6
20210923003133 94 279 12.0 20.0 0.00 0.00 0.00 29 1014.5
20210923002556 94 311 10.0 22.0 0.00 0.00 0.00 29 1014.6
20210923002117 94 285 13.0 22.0 0.00 0.00 0.00 29 1014.7
20210923001620 94 299 13.0 20.0 0.00 0.00 0.00 29 1014.8
20210923001104 94 309 15.0 19.0 0.00 0.00 0.00 28 1014.7
20210923000600 94 298 13.0 19.0 0.00 0.00 0.00 28 1014.6
20210923000148 95 313 12.0 23.0 0.00 0.00 0.00 27 1014.6
20210922235556 95 311 13.0 23.0 0.00 0.00 0.00 27 1014.6
20210922235055 95 274 14.0 21.0 0.00 0.00 0.00 27 1014.7
20210922234655 96 301 14.0 18.0 0.00 0.00 0.00 26 1014.7
20210922234106 96 300 12.0 21.0 0.00 0.00 0.00 25 1014.7
20210922233559 96 275 14.0 21.0 0.00 0.00 0.00 25 1014.7
20210922233205 96 292 15.0 21.0 0.00 0.00 0.00 25 1014.9
20210922232559 97 292 12.0 19.0 0.00 0.00 0.00 23 1014.9
20210922232129 97 294 12.0 18.0 0.00 0.00 0.00 22 1015.0
20210922231626 98 312 10.0 19.0 0.00 0.00 0.00 21 1014.9
20210922231059 98 313 10.0 19.0 0.00 0.00 0.00 20 1015.0
20210922230613 98 301 10.0 17.0 0.00 0.00 0.00 19 1015.0
20210922230131 98 281 11.0 17.0 0.00 0.00 0.00 19 1015.1
20210922225634 99 283 10.0 18.0 0.00 0.00 0.00 19 1015.0
20210922225133 98 284 11.0 18.0 0.00 0.00 0.00 18 1015.1
20210922224647 98 293 10.0 16.0 0.00 0.00 0.00 19 1015.2
20210922224109 98 312 8.0 18.0 0.00 0.00 0.00 18 1015.2
20210922223603 98 271 11.0 18.0 0.00 0.00 0.00 18 1015.3
20210922223147 98 311 5.0 17.0 0.00 0.00 0.00 18 1015.3
20210922222600 98 293 11.0 18.0 0.00 0.00 0.00 18 1015.4
20210922222107 98 285 9.0 18.0 0.00 0.00 0.00 18 1015.5
20210922221609 98 260 13.0 18.0 0.00 0.00 0.00 17 1015.5
20210922221101 98 294 7.0 20.0 0.00 0.00 0.00 18 1015.5
20210922220558 98 264 14.0 20.0 0.00 0.00 0.00 18 1015.7
20210922220158 98 291 3.0 16.0 0.00 0.00 0.00 19 1015.7
20210922215557 98 278 11.0 18.0 0.00 0.00 0.00 18 1015.8
20210922215120 99 254 12.0 18.0 0.00 0.00 0.00 18 1016.0
20210922214640 99 244 14.0 18.0 0.00 0.00 0.00 17 1016.0
20210922214058 99 267 12.0 17.0 0.00 0.00 0.00 16 1016.0
20210922213605 98 286 7.0 15.0 0.00 0.00 0.00 16 1016.2
20210922213152 99 292 8.0 17.0 0.00 0.00 0.00 13 1016.3
20210922212600 99 300 7.0 17.0 0.00 0.00 0.00 14 1016.3
20210922212059 98 270 8.0 18.0 0.00 0.00 0.00 16 1016.3
20210922211631 98 283 11.0 18.0 0.00 0.00 0.00 16 1016.3
20210922211057 99 249 10.0 16.0 0.00 0.00 0.00 15 1016.4
20210922210559 98 231 7.0 14.0 0.00 0.00 0.00 15 1016.5
20210922210230 98 200 8.0 13.0 0.00 0.00 0.00 15 1016.6
20210922205600 98 272 8.0 13.0 0.00 0.00 0.00 14 1016.6
20210922205058 99 265 9.0 16.0 0.00 0.00 0.00 13 1016.7
20210922204641 98 323 9.0 16.0 0.00 0.00 0.00 16 1016.8
20210922204115 99 298 10.0 16.0 0.00 0.00 0.00 16 1016.8
20210922203604 98 246 7.0 15.0 0.00 0.00 0.00 16 1017.0
20210922203222 98 267 10.0 15.0 0.00 0.00 0.00 17 1017.1
20210922202601 98 271 6.0 16.0 0.00 0.00 0.00 18 1017.2
20210922202059 98 331 9.0 16.0 0.00 0.00 0.00 18 1017.3
20210922201633 98 326 7.0 15.0 0.00 0.00 0.00 16 1017.4
20210922201057 97 264 6.0 14.0 0.00 0.00 0.00 17 1017.4
20210922200603 97 273 6.0 19.0 0.00 0.00 0.00 19 1017.4
20210922200150 97 331 5.0 19.0 0.00 0.00 0.00 18 1017.5
20210922195608 97 223 4.0 10.0 0.00 0.00 0.00 19 1017.4
20210922195058 97 174 4.0 10.0 0.00 0.00 0.00 19 1017.7
20210922194750 96 264 1.0 9.0 0.00 0.00 0.00 21 1017.8
20210922194148 96 302 5.0 11.0 0.00 0.00 0.00 21 1017.8
20210922193605 96 248 8.0 13.0 0.00 0.00 0.00 20 1017.8
20210922193139 96 278 9.0 13.0 0.00 0.00 0.00 21 1017.9
20210922192559 97 277 2.0 6.0 0.00 0.00 0.00 21 1017.9
20210922192057 96 284 2.0 4.0 0.00 0.00 0.00 21 1018.0
20210922191750 96 202 1.0 3.0 0.00 0.00 0.00 20 1018.1
20210922191057 95 147 1.0 9.0 0.00 0.00 0.00 21 1018.1
20210922190621 95 266 2.0 9.0 0.00 0.00 0.00 21 1018.3
20210922190116 95 281 3.0 8.0 0.00 0.00 0.00 22 1018.4
20210922185557 94 300 0.0 6.0 0.00 0.00 0.00 23 1018.4
20210922185124 94 325 2.0 6.0 0.00 0.00 0.00 23 1018.5
20210922184613 94 140 2.0 8.0 0.00 0.00 0.00 23 1018.5
20210922184102 94 194 4.0 8.0 0.00 0.00 0.00 24 1018.6
20210922183603 93 193 2.0 8.0 0.00 0.00 0.00 24 1018.8
20210922183148 93 155 1.0 4.0 0.00 0.00 0.00 24 1018.8
20210922182607 92 292 0.0 7.0 0.00 0.00 0.00 24 1018.9
20210922182114 92 292 2.0 7.0 0.00 0.00 0.00 24 1018.9
20210922181643 92 169 2.0 7.0 0.00 0.00 0.00 24 1018.9
20210922181102 92 209 1.0 6.0 0.00 0.00 0.00 25 1019.1
20210922180600 92 163 1.0 4.0 0.00 0.00 0.00 25 1019.1
20210922180129 91 9 0.0 3.0 0.00 0.00 0.00 25 1019.1
20210922175607 91 332 0.0 7.0 0.00 0.00 0.00 26 1019.1
20210922175121 90 318 1.0 7.0 0.00 0.00 0.00 26 1019.2
20210922174641 90 246 3.0 6.0 0.00 0.00 0.00 26 1019.3
20210922174058 90 259 0.0 4.0 0.00 0.00 0.00 26 1019.5
20210922173609 89 155 1.0 3.0 0.00 0.00 0.00 26 1019.4
20210922173113 89 155 1.0 3.0 0.00 0.00 0.00 26 1019.4
20210922172557 88 0 1.0 2.0 0.00 0.00 0.00 27 1019.6
20210922172100 89 121 0.0 2.0 0.00 0.00 0.00 27 1019.7
20210922171710 88 0 0.0 3.0 0.00 0.00 0.00 28 1019.8
20210922171116 87 121 1.0 3.0 0.00 0.00 0.00 28 1019.9
20210922170601 87 121 0.0 3.0 0.00 0.00 0.00 29 1019.8
20210922170226 87 0 0.0 3.0 0.00 0.00 0.00 29 1019.8
20210922165630 86 121 1.0 3.0 0.00 0.00 0.00 30 1019.8
20210922165057 85 121 1.0 3.0 0.00 0.00 0.00 31 1019.9
20210922164633 85 128 1.0 4.0 0.00 0.00 0.00 32 1019.9
20210922164057 84 123 1.0 4.0 0.00 0.00 0.00 32 1019.9
20210922163611 83 73 1.0 4.0 0.00 0.00 0.00 33 1020.0
20210922163349 83 72 1.0 4.0 0.00 0.00 0.00 33 1019.9
20210922162603 82 0 1.0 3.0 0.00 0.00 0.00 34 1019.9
20210922162059 81 105 1.0 3.0 0.00 0.00 0.00 34 1020.0
20210922161701 81 146 0.0 3.0 0.00 0.00 0.00 35 1020.0
20210922161059 80 146 1.0 3.0 0.00 0.00 0.00 35 1020.0
20210922160600 80 0 0.0 2.0 0.00 0.00 0.00 36 1020.1
20210922160140 79 0 0.0 2.0 0.00 0.00 0.00 36 1020.2
20210922155607 79 0 0.0 1.0 0.00 0.00 0.00 36 1020.0
20210922155109 78 0 0.0 1.0 0.00 0.00 0.00 37 1020.1
20210922154633 78 0 0.0 1.0 0.00 0.00 0.00 37 1020.1
20210922154104 77 0 0.0 2.0 0.00 0.00 0.00 38 1020.1
20210922153610 76 0 0.0 3.0 0.00 0.00 0.00 39 1020.2
20210922153120 76 218 0.0 3.0 0.00 0.00 0.00 39 1020.2
20210922152603 75 218 0.0 1.0 0.00 0.00 0.00 39 1020.1
20210922152110 74 218 0.0 1.0 0.00 0.00 0.00 41 1020.2
20210922151629 74 218 0.0 2.0 0.00 0.00 0.00 41 1020.1
20210922151114 72 0 0.0 4.0 0.00 0.00 0.00 44 1020.2
20210922150635 71 0 2.0 4.0 0.00 0.00 0.00 45 1020.2
20210922150130 71 211 2.0 4.0 0.00 0.00 0.00 45 1020.2
20210922145558 71 165 1.0 4.0 0.00 0.00 0.00 45 1020.2
20210922145112 71 0 0.0 1.0 0.00 0.00 0.00 45 1020.2
20210922144707 71 0 0.0 0.0 0.00 0.00 0.00 46 1020.1
20210922144057 70 0 0.0 1.0 0.00 0.00 0.00 46 1020.1
20210922143559 70 0 0.0 1.0 0.00 0.00 0.00 46 1020.1
20210922143129 69 0 0.0 1.0 0.00 0.00 0.00 47 1020.1
20210922142601 69 0 0.0 2.0 0.00 0.00 0.00 48 1020.0
20210922142058 68 0 0.0 2.0 0.00 0.00 0.00 49 1020.0
20210922141705 68 0 0.0 2.0 0.00 0.00 0.00 49 1020.2
20210922141105 67 91 1.0 3.0 0.00 0.00 0.00 50 1020.1
20210922140558 67 90 2.0 3.0 0.00 0.00 0.00 50 1020.1
20210922140159 66 90 1.0 3.0 0.00 0.00 0.00 51 1020.0
20210922135558 66 91 2.0 3.0 0.00 0.00 0.00 52 1020.1
20210922135105 66 91 2.0 3.0 0.00 0.00 0.00 52 1020.1
20210922134646 66 90 1.0 3.0 0.00 0.00 0.00 52 1020.1
20210922134109 66 90 2.0 3.0 0.00 0.00 0.00 52 1020.1
20210922133558 66 90 1.0 3.0 0.00 0.00 0.00 52 1020.1
20210922133326 66 90 1.0 2.0 0.00 0.00 0.00 51 1020.1
20210922132556 66 90 1.0 2.0 0.00 0.00 0.00 51 1020.0
20210922132103 66 90 0.0 3.0 0.00 0.00 0.00 51 1020.1
20210922131745 66 90 2.0 3.0 0.00 0.00 0.00 52 1020.1
20210922131107 66 90 1.0 2.0 0.00 0.00 0.00 51 1020.1
20210922130604 67 91 0.0 2.0 0.00 0.00 0.00 51 1020.2
20210922130151 67 0 0.0 1.0 0.00 0.00 0.00 51 1020.1
20210922125603 67 0 0.0 2.0 0.00 0.00 0.00 51 1020.1
20210922125102 67 0 1.0 2.0 0.00 0.00 0.00 51 1020.0
20210922124642 67 90 1.0 2.0 0.00 0.00 0.00 51 1020.1
20210922124059 68 90 1.0 2.0 0.00 0.00 0.00 50 1020.2
20210922123606 68 0 1.0 2.0 0.00 0.00 0.00 49 1020.1
20210922123106 69 90 0.0 1.0 0.00 0.00 0.00 48 1020.1
20210922122610 69 0 0.0 1.0 0.00 0.00 0.00 48 1020.1
20210922122116 68 0 0.0 0.0 0.00 0.00 0.00 49 1020.1
20210922121647 68 0 0.0 0.0 0.00 0.00 0.00 48 1020.1
20210922121058 69 0 0.0 0.0 0.00 0.00 0.00 47 1020.1
20210922120600 69 0 0.0 0.0 0.00 0.00 0.00 47 1020.1
20210922120133 69 0 0.0 1.0 0.00 0.00 0.00 48 1020.1
20210922115558 69 0 0.0 1.0 0.00 0.00 0.00 48 1020.1
20210922115104 69 0 0.0 0.0 0.00 0.00 0.00 48 1020.1
20210922114740 68 0 0.0 0.0 0.00 0.00 0.00 49 1020.1
20210922114058 68 0 0.0 2.0 0.00 0.00 0.00 49 1020.1
20210922113608 68 0 0.0 2.0 0.00 0.00 0.00 49 1020.1
20210922113215 68 90 0.0 2.0 0.00 0.00 0.00 48 1020.1
20210922112611 69 0 0.0 1.0 0.00 0.00 0.00 48 1020.0
20210922112058 69 0 0.0 2.0 0.00 0.00 0.00 47 1020.0
20210922111605 69 0 0.0 2.0 0.00 0.00 0.00 47 1020.1
20210922111105 69 90 1.0 2.0 0.00 0.00 0.00 47 1020.1
20210922110557 69 0 0.0 0.0 0.00 0.00 0.00 47 1020.0
20210922110114 69 0 0.0 1.0 0.00 0.00 0.00 47 1020.0
20210922105615 69 0 0.0 1.0 0.00 0.00 0.00 47 1020.0
20210922105057 69 91 0.0 1.0 0.00 0.00 0.00 48 1020.0
20210922104633 69 0 0.0 2.0 0.00 0.00 0.00 47 1020.0
20210922104102 69 91 0.0 2.0 0.00 0.00 0.00 47 1019.9
20210922103603 69 0 0.0 1.0 0.00 0.00 0.00 47 1019.9
20210922103123 70 0 0.0 2.0 0.00 0.00 0.00 47 1019.9
20210922102609 70 0 0.0 3.0 0.00 0.00 0.00 46 1020.0
20210922102058 70 91 1.0 3.0 0.00 0.00 0.00 46 1020.0
20210922101819 70 91 1.0 3.0 0.00 0.00 0.00 46 1020.0
20210922101102 70 91 1.0 3.0 0.00 0.00 0.00 46 1020.1
20210922100620 70 91 1.0 3.0 0.00 0.00 0.00 46 1020.1
20210922100131 70 91 1.0 2.0 0.00 0.00 0.00 46 1020.1
20210922095628 71 90 1.0 3.0 0.00 0.00 0.00 46 1020.2
20210922095057 71 91 1.0 3.0 0.00 0.00 0.00 45 1020.0
20210922094642 72 90 1.0 2.0 0.00 0.00 0.00 44 1020.2
20210922094057 72 90 1.0 2.0 0.00 0.00 0.00 43 1020.2
20210922093558 72 90 1.0 2.0 0.00 0.00 0.00 43 1020.3
20210922093123 72 0 0.0 1.0 0.00 0.00 0.00 43 1020.2
20210922092600 72 0 0.0 1.0 0.00 0.00 0.00 44 1020.2
20210922092101 72 91 0.0 0.0 0.00 0.00 0.00 44 1020.1
20210922091653 72 0 0.0 0.0 0.00 0.00 0.00 44 1020.1
20210922091113 72 0 0.0 1.0 0.00 0.00 0.00 44 1020.1
20210922090614 73 0 0.0 1.0 0.00 0.00 0.00 43 1020.2
20210922090157 73 0 0.0 2.0 0.00 0.00 0.00 43 1020.1
20210922085609 73 0 0.0 2.0 0.00 0.00 0.00 42 1020.1
20210922085058 73 91 0.0 3.0 0.00 0.00 0.00 42 1020.1
20210922084652 73 90 1.0 3.0 0.00 0.00 0.00 41 1020.1
20210922084123 74 91 1.0 2.0 0.00 0.00 0.00 41 1020.1
20210922083559 74 90 0.0 1.0 0.00 0.00 0.00 41 1020.1
20210922083229 74 0 0.0 2.0 0.00 0.00 0.00 41 1020.1
20210922082620 74 91 0.0 3.0 0.00 0.00 0.00 41 1020.1
20210922082058 74 0 1.0 4.0 0.00 0.00 0.00 41 1020.1
20210922081748 74 91 2.0 4.0 0.00 0.00 0.00 41 1020.0
20210922081056 74 90 2.0 5.0 0.00 0.00 0.00 41 1020.1
20210922080600 74 80 3.0 5.0 0.00 0.00 0.00 41 1020.0
20210922080241 74 80 3.0 5.0 0.00 0.00 0.00 41 1020.0
20210922075558 74 80 2.0 4.0 0.00 0.00 0.00 42 1020.0
20210922075104 74 82 2.0 3.0 0.00 0.00 0.00 41 1020.1
20210922074641 74 82 2.0 3.0 0.00 0.00 0.00 41 1020.0
20210922074057 75 0 0.0 3.0 0.00 0.00 0.00 41 1020.1
20210922073558 75 82 1.0 4.0 0.00 0.00 0.00 41 1020.0
20210922073220 75 82 2.0 4.0 0.00 0.00 0.00 41 1020.1
20210922072608 75 82 2.0 3.0 0.00 0.00 0.00 41 1020.1
20210922072123 75 82 2.0 3.0 0.00 0.00 0.00 41 1020.0
20210922071826 75 80 1.0 4.0 0.00 0.00 0.00 41 1020.1
20210922071057 75 80 1.0 4.0 0.00 0.00 0.00 40 1020.1
20210922070615 76 80 3.0 4.0 0.00 0.00 0.00 40 1020.1
20210922070126 76 77 2.0 4.0 0.00 0.00 0.00 40 1020.1
20210922065558 76 74 2.0 4.0 0.00 0.00 0.00 40 1020.1
20210922065101 76 74 2.0 4.0 0.00 0.00 0.00 39 1020.1
20210922064719 76 74 2.0 4.0 0.00 0.00 0.00 39 1020.3
20210922064106 77 74 2.0 4.0 0.00 0.00 0.00 39 1020.2
20210922063611 77 73 2.0 4.0 0.00 0.00 0.00 39 1020.2
20210922063149 77 84 2.0 4.0 0.00 0.00 0.00 39 1020.0
20210922062558 78 84 2.0 4.0 0.00 0.00 0.00 39 1020.1
20210922062058 78 84 3.0 4.0 0.00 0.00 0.00 38 1020.1
20210922061658 79 84 2.0 3.0 0.00 0.00 0.00 38 1019.9
20210922061058 79 84 1.0 3.0 0.00 0.00 0.00 37 1019.9
20210922060600 79 84 2.0 3.0 0.00 0.00 0.00 37 1019.9
20210922060225 80 84 2.0 4.0 0.00 0.00 0.00 37 1019.9
20210922055558 80 84 2.0 4.0 0.00 0.00 0.00 36 1019.8
20210922055101 80 84 1.0 3.0 0.00 0.00 0.00 36 1019.8
20210922054719 80 0 1.0 3.0 0.00 0.00 0.00 37 1019.9
20210922054058 80 84 2.0 4.0 0.00 0.00 0.00 38 1019.8
20210922053603 80 82 3.0 4.0 0.00 0.00 0.00 38 1019.8
20210922053321 80 227 1.0 2.0 0.00 0.00 0.00 38 1019.7
20210922052604 80 227 0.0 2.0 0.00 0.00 0.00 39 1019.7
20210922052059 81 0 0.0 0.0 0.00 0.00 0.00 39 1019.7
20210922051646 81 0 0.0 2.0 0.00 0.00 0.00 39 1019.7
20210922051058 81 0 0.0 2.0 0.00 0.00 0.00 39 1019.7
20210922050611 81 227 1.0 3.0 0.00 0.00 0.00 39 1019.8
20210922050123 81 227 1.0 4.0 0.00 0.00 0.00 38 1019.7
20210922045617 81 227 2.0 4.0 0.00 0.00 0.00 38 1019.7
20210922045058 82 150 1.0 3.0 0.00 0.00 0.00 37 1019.7
20210922044644 82 0 1.0 3.0 0.00 0.00 0.00 37 1019.8
20210922044118 82 150 1.0 3.0 0.00 0.00 0.00 36 1019.7
20210922043558 83 149 0.0 3.0 0.00 0.00 0.00 35 1019.7
20210922043219 83 0 0.0 3.0 0.00 0.00 0.00 35 1019.7
20210922042631 84 149 0.0 2.0 0.00 0.00 0.00 34 1019.7
20210922042058 84 0 0.0 3.0 0.00 0.00 0.00 33 1019.6
20210922041716 84 148 0.0 6.0 0.00 0.00 0.00 32 1019.5
20210922041058 84 0 0.0 6.0 0.00 0.00 0.00 32 1019.4
20210922040607 84 146 3.0 6.0 0.00 0.00 0.00 32 1019.5
20210922040252 84 140 0.0 8.0 0.00 0.00 0.00 32 1019.4
20210922035556 84 140 3.0 8.0 0.00 0.00 0.00 32 1019.4
20210922035057 85 140 4.0 7.0 0.00 0.00 0.00 32 1019.4
20210922034704 85 137 1.0 6.0 0.00 0.00 0.00 32 1019.3
20210922034058 85 145 2.0 6.0 0.00 0.00 0.00 32 1019.3
20210922033558 85 152 3.0 8.0 0.00 0.00 0.00 31 1019.1
20210922033119 86 134 3.0 8.0 0.00 0.00 0.00 31 1019.1
20210922032617 86 134 4.0 9.0 0.00 0.00 0.00 31 1019.0
20210922032059 86 144 5.0 9.0 0.00 0.00 0.00 31 1018.8
20210922031803 86 151 5.0 8.0 0.00 0.00 0.00 31 1018.6
20210922031058 86 148 3.0 8.0 0.00 0.00 0.00 32 1018.6
20210922030116 86 121 4.0 10.0 0.00 0.00 0.00 32 1018.5
20210922025607 86 140 6.0 10.0 0.00 0.00 0.00 33 1018.4
20210922025056 87 163 6.0 10.0 0.00 0.00 0.00 32 1018.3
20210922024639 87 163 5.0 9.0 0.00 0.00 0.00 33 1018.2
20210922024059 87 135 4.0 10.0 0.00 0.00 0.00 33 1018.2
20210922023610 87 103 7.0 10.0 0.00 0.00 0.00 34 1018.1
20210922023136 88 75 3.0 7.0 0.00 0.00 0.00 34 1018.0
20210922022605 89 0 3.0 8.0 0.00 0.00 0.00 31 1017.8
20210922022059 89 254 4.0 8.0 0.00 0.00 0.00 30 1017.7
20210922021651 90 231 2.0 9.0 0.00 0.00 0.00 29 1017.7
20210922021059 90 196 4.0 9.0 0.00 0.00 0.00 29 1017.7
20210922020632 91 196 3.0 11.0 0.00 0.00 0.00 27 1017.6
20210922020200 92 215 5.0 12.0 0.00 0.00 0.00 26 1017.5
20210922015602 92 193 7.0 12.0 0.00 0.00 0.00 26 1017.5
20210922015059 92 176 5.0 11.0 0.00 0.00 0.00 25 1017.5